Regional Weather Roundup
Issued by NWS

Home | Current Version | Previous Version | Text Only | Print | Product List | Glossary Off
Versions: 1 2 3 4 5 6 7 8 9 10 11 12 13 14 15 16 17 18 19 20 21 22 23 24 25 26 27 28 29 30 31 32 33 34 35 36 37 38 39 40 41 42 43 44 45 46 47 48 49 50

000
ASUS43 KDTX 250010
RWRMI
MICHIGAN HOURLY REGIONAL WEATHER ROUNDUP
NATIONAL WEATHER SERVICE DETROIT/PONTIAC MI
800 PM EDT FRI OCT 24 2014

NOTE: "FAIR" INDICATES FEW OR NO CLOUDS BELOW 12,000 FEET WITH NO
SIGNIFICANT WEATHER AND/OR OBSTRUCTION TO VISIBILITY.

MIZ047>049-052>055-059>063-066>070-074>076-081>083-250100-
SOUTHEAST LOWER MICHIGAN

CITY           SKY/WX    TMP DP  RH WIND       PRES   REMARKS
ADRIAN         PTCLDY    52  45  77 S3        30.00S
6HR MIN TEMP:  52; 6HR MAX TEMP:  58;

ALMA           CLEAR     51  48  89 W5        29.97S
ANN ARBOR      CLOUDY    49  43  80 CALM      29.99R
BAD AXE        MOCLDY    50  46  86 CALM      29.96S
6HR MIN TEMP:  50; 6HR MAX TEMP:  61;

DETROIT CITY   MOCLDY    58  44  60 SW7       29.99R
6HR MIN TEMP:  57; 6HR MAX TEMP:  64;

DETROIT        MOCLDY    54  45  71 S8        30.00R
6HR MIN TEMP:  54; 6HR MAX TEMP:  61;

FLINT          CLOUDY    57  48  72 SW3       29.97S
6HR MIN TEMP:  57; 6HR MAX TEMP:  63;

GROSSE ILE     MOCLDY    55  46  71 CALM      29.98S
HILLSDALE      PTCLDY    50  48  93 CALM      29.99S
6HR MIN TEMP:  50; 6HR MAX TEMP:  60;

HOWELL         CLOUDY    56  46  68 CALM      29.98R

CITY           SKY/WX    TMP DP  RH WIND       PRES   REMARKS
JACKSON        CLEAR     50  47  89 CALM      29.98S FOG
6HR MIN TEMP:  50; 6HR MAX TEMP:  59;

LAMBERTVILLE   CLOUDY    52  45  76 CALM      30.01S
LANSING        PTCLDY    56  47  71 W3        29.99R
6HR MIN TEMP:  55; 6HR MAX TEMP:  61;

LAPEER         NOT AVBL
MASON          PTCLDY    51  45  78 CALM      29.98S
MONROE         MOCLDY    52  45  76 W3        29.99R
MT. CLEMENS    MOCLDY    54  45  70 SW7       29.95S
6HR MIN TEMP:  54; 6HR MAX TEMP:  62;

PONTIAC        CLOUDY    56  45  66 SW7       29.97R
6HR MIN TEMP:  56; 6HR MAX TEMP:  60;

PORT HOPE        N/A     51  47  86 CALM      29.94S
6HR MIN TEMP:  51; 6HR MAX TEMP:  58;

PORT HURON     CLOUDY    54  45  71 S3        29.97S
TRI CITIES     CLOUDY    58  49  72 SW6       29.97R
6HR MIN TEMP:  56; 6HR MAX TEMP:  62;

YPSILANTI      MOCLDY    57  45  64 SW6       30.00R
6HR MIN TEMP:  56; 6HR MAX TEMP:  64;

$$
MIZ043>046-050>051-056>058-064>065-071>073-077>080-250100-
SOUTHWEST LOWER MICHIGAN

CITY           SKY/WX    TMP DP  RH WIND       PRES   REMARKS
BATTLE CREEK   CLEAR     54  46  74 CALM      29.99R
6HR MIN TEMP:  53; 6HR MAX TEMP:  63;

BENTON HARBOR  CLEAR     49  47  93 CALM      29.97S FOG
6HR MIN TEMP:  49; 6HR MAX TEMP:  59;

BIG RAPIDS     CLOUDY    52  52  99 SW5       29.97S
6HR MIN TEMP:  52; 6HR MAX TEMP:  55;

COLDWATER      MOCLDY    51  49  93 CALM      29.99R
6HR MIN TEMP:  50; 6HR MAX TEMP:  63;

HOLLAND        CLEAR     50  47  89 SE3       29.98S
6HR MIN TEMP:  50; 6HR MAX TEMP:  60;

GRAND RAPIDS   CLEAR     54  49  83 CALM      29.98S
6HR MIN TEMP:  53; 6HR MAX TEMP:  62;

KALAMAZOO      CLEAR     51  46  83 CALM      29.99R
6HR MIN TEMP:  52; 6HR MAX TEMP:  64;

MARSHALL       PTCLDY    47  43  85 CALM      29.97S
MUSKEGON       CLOUDY    53  48  83 SW3       29.98S
6HR MIN TEMP:  53; 6HR MAX TEMP:  56;

$$
MIZ016>042-250100-
NORTHERN LOWER MICHIGAN

CITY           SKY/WX    TMP DP  RH WIND       PRES   REMARKS
ALPENA         CLOUDY    53  47  79 SW3       29.93S
6HR MIN TEMP:  53; 6HR MAX TEMP:  57;

BEAVER ISLAND  CLOUDY    50  48  93 SW7       29.91F
6HR MIN TEMP:  50; 6HR MAX TEMP:  53;

BELLAIRE       CLOUDY    52  48  86 CALM      29.93F
CADILLAC       CLOUDY    50  48  93 SW7       29.94F
CHARLEVOIX     CLOUDY    52  50  92 CALM      29.95S
6HR MIN TEMP:  52; 6HR MAX TEMP:  55;

FRANKFORT      CLOUDY    51  46  84 S3        29.94F
GAYLORD        CLOUDY    50  46  86 SW9       29.93F
6HR MIN TEMP:  50; 6HR MAX TEMP:  52;

GRAYLING       CLOUDY    52  49  89 CALM      29.94F
6HR MIN TEMP:  52; 6HR MAX TEMP:  54;

HARBOR SPRINGS CLOUDY    53  48  81 SW7       29.92S
HOUGHTON LAKE  CLOUDY    52  48  86 W5        29.95S
6HR MIN TEMP:  51; 6HR MAX TEMP:  52;

MANISTEE       CLOUDY    52  45  76 S6        29.96S
OSCODA         CLOUDY    53  48  85 CALM      29.94R
PELLSTON       CLOUDY    52  48  86 S3        29.92F
6HR MIN TEMP:  52; 6HR MAX TEMP:  55;

TRAVERSE CITY  CLOUDY    53  46  77 VRB3      29.93S
6HR MIN TEMP:  53; 6HR MAX TEMP:  55;

$$
MIZ007>008-015-250100-
EASTERN UPPER MICHIGAN

CITY           SKY/WX    TMP DP  RH WIND       PRES   REMARKS
KINROSS        CLOUDY    50  48  93 SW6       29.89S
6HR MIN TEMP:  50; 6HR MAX TEMP:  54;

MACKINAC ISLAN CLOUDY    51  49  94 SW9       29.90F
6HR MIN TEMP:  51; 6HR MAX TEMP:  53;

NEWBERRY       CLOUDY    47  46  95 SW12G20   29.87F
S. S. MARIE    CLOUDY    51  46  83 S7        29.88F
6HR MIN TEMP:  51; 6HR MAX TEMP:  53;

$$
MIZ004>006-011>014-085-250100-
CENTRAL UPPER MICHIGAN

CITY           SKY/WX    TMP DP  RH WIND       PRES   REMARKS
MANISTIQUE     CLOUDY    49  48  95 SW9       29.88S FOG
ESCANABA       PTCLDY    50  46  87 S9        29.87S
6HR MIN TEMP:  48; 6HR MAX TEMP:  52;

MENOMINEE      MOCLDY    48  46  93 SW8       29.88F
6HR MIN TEMP:  48; 6HR MAX TEMP:  55;

SAWYER-GWINN   CLEAR     50  46  87 S10       29.82F
$$
MIZ001>003-009>011-084-250100-
WESTERN UPPER MICHIGAN

CITY           SKY/WX    TMP DP  RH WIND       PRES   REMARKS
IRON MOUNTAIN  PTCLDY    52  47  83 S8        29.84S
6HR MIN TEMP:  51; 6HR MAX TEMP:  62;

HOUGHTON       MOCLDY    57  43  59 SW3       29.73F
6HR MIN TEMP:  53; 6HR MAX TEMP:  67;

COPPER HARBOR    N/A     52  45  77 W8        29.70F
6HR MIN TEMP:  48; 6HR MAX TEMP:  57;

IRONWOOD       CLEAR     59  50  72 SW9       29.76S
6HR MIN TEMP:  59; 6HR MAX TEMP:  66;

$$

ABBREVIATIONS USED IN REMARKS
   TC - TEMPERATURE IN CELSIUS
  WCI - WIND CHILL INDEX
   HX - HEAT INDEX
  VSB - VISIBILITY




USA.gov is the U.S. government's official web portal to all federal, state and local government web resources and services.